Flag for Canada Weather past 2 weeks in Creston, British Columbia, Canada

Now
56 °F

Cool.


Feels Like: 55 °F
Forecast: 55 / 67 °F
Wind: 5 mph from West

Location: Creston

Current Time: Aug 22, 2014 at 3:46:57 AM

Latest Report: Aug 22, 2014 at 3:00 AM


Visibility: N/A

Pressure: 30.05 "Hg

Humidity: 86%

Dew point: 52 °F

Location of CrestonLocation

Historic Weather in Creston — Graph

°F

Creston temperature yesterday

Maximum temperature yesterday: 76 °F (at 3:00 PM)
Minimum temperature yesterday: 54 °F (at 6:00 AM)
Average temperature yesterday: 62 °F

Past Weeks' High & Low Weather Summary

 TemperatureHumidityPressure
High96 °F (Aug 11, 4:00 PM)100% (Aug 16, 3:00 AM)30.20 "Hg (Aug 16, 3:00 AM)
Low54 °F (Aug 21, 6:00 AM)15% (Aug 11, 5:00 PM)29.67 "Hg (Aug 19, 5:00 PM)
Average69 °F63%29.97 "Hg
* Reported Aug 7 2:00 AM — Aug 22 2:00 AM, Creston, Weather by CustomWeather, © 2014

Note: Actual official high and low records may vary slightly from our data, if they occured in-between our weather recording intervals... More about our weather records

Advertising

Creston weather history for previous 24 hours

 ConditionsComfort  
Time TempWeatherWind HumidityBarometerVisibility
2:00 AM
Aug 22
56 °FCool.5 mph84%30.05 "HgN/A
1:00 AM57 °FCool.5 mph80%30.06 "HgN/A
12:00 AM58 °FCool.6 mph81%30.07 "HgN/A
11:00 PM
Aug 21
58 °FCool.8 mph79%30.06 "HgN/A
10:00 PM59 °FCool.2 mph72%30.06 "HgN/A
9:00 PM60 °FCool.9 mph72%30.07 "HgN/A
8:00 PM61 °FCool.9 mph65%30.05 "HgN/A
7:00 PM60 °FCool.8 mph72%30.03 "HgN/A
6:00 PM63 °FMild.10 mph61%30.02 "HgN/A
5:00 PM71 °FMild.2 mph53%29.98 "HgN/A
4:00 PM71 °FMild.3 mph50%29.96 "HgN/A
3:00 PM76 °FMild.5 mph40%29.96 "HgN/A
2:00 PM74 °FMild.5 mph44%29.98 "HgN/A
1:00 PM72 °FMild.3 mph53%30.01 "HgN/A
12:00 PM68 °FMild.3 mph63%30.03 "HgN/A
11:00 AM69 °FMild.2 mph61%30.04 "HgN/A
10:00 AM66 °FMild.1 mph76%30.05 "HgN/A
9:00 AM60 °FCool.2 mph85%30.05 "HgN/A
8:00 AM58 °FCool.2 mph91%30.05 "HgN/A
7:00 AM54 °FCool.2 mph93%30.05 "HgN/A
6:00 AM54 °FCool.3 mph95%30.03 "HgN/A
5:00 AM57 °FCool.7 mph86%30.01 "HgN/A
4:00 AM55 °FCool.5 mph91%30.01 "HgN/A
3:00 AM57 °FCool.6 mph87%29.98 "HgN/A
Weather by CustomWeather, © 2014

See weather overviewHow to use our weather pages